Content
SEND FEEDBACK

Daily
Averages
Monthly
Summary
Canada

MONTREAL, QUEBEC


Home > North America > Canada > Quebec
Elevation: 35 meters     Latitude: 45 28N     Longitude: 073 45W

WEATHER
 
SELECT A DAY
Number of Records: 198,587;   Date Range: 1/1/95 - 8/31/14
 
SHARE

PRINT THIS DATA

[ ← Previous Day ]
WEATHER ALMANAC - 16 FEBRUARY, 2013
[ Next Day → ]
[ °F ]   °C
Weather ElementAverageHighLow
Temperature-7.8 °C-3.3 °C (1:00 am)-11 °C (8:00 am)
Dewpoint-14.2 °C-7.8 °C (1:00 am)-16 °C (10:00 am)
Humidity60 %74 % (1:00 am)40 % (1:00 pm)
Barometer1016.9 hPa1018.6 hPa (9:00 am)1015.6 hPa (1:00 am)
Wind Speed17.4 km/h27.8 km/h (1:00 am)
Wind Gust33.3 km/h (1:44 am)
Weather ElementAverage
Visibility35.6 km
Wind DirectionWSW (263.7 °)

Weather ElementTotal
Precipitation---
Heating Degree Days25.5 (Base 18.3)
Averaged from 27 records on 16 February, 2013
WEATHER CONDITIONS BREAKOUT
WIND DIRECTION BREAKOUT
WEATHER BY HOUR - 16 FEBRUARY, 2013
[ °F ]   °C
Local TimeTemperatureDewpointHumidityBarometerVisibilityWind DirectionWind SpeedGust SpeedPrecipitationEventsConditions
1:00 AM-3.3 °C-7.8 °C61 %1015.6 hPa24.1 kmWest (260°)25.9 km/hSnowLight Snow
1:00 AM-4 °C-8 °C74 %1015.6 hPa24.1 kmWest (270°)27.8 km/hSnowLight Snow
1:44 AM-5 °C-11 °C63 %1015.9 hPa24.1 kmWest (260°)22.2 km/h33.3 km/hOvercast
2:00 AM-5 °C-11 °C63 %1015.9 hPa24.1 kmWest (260°)18.5 km/hOvercast
3:00 AM-7 °C-12 °C68 %1015.9 hPa24.1 kmWSW (250°)24.1 km/hMostly Cloudy
4:00 AM-8 °C-13 °C68 %1016.3 hPa24.1 kmWest (260°)18.5 km/hScattered Clouds
5:00 AM-9 °C-14 °C68 %1016.6 hPa24.1 kmWSW (250°)20.4 km/hPartly Cloudy
6:00 AM-10 °C-14 °C73 %1016.9 hPa24.1 kmWSW (250°)14.8 km/hPartly Cloudy
7:00 AM-10 °C-15 °C67 %1017.6 hPa24.1 kmWest (260°)16.7 km/hPartly Cloudy
8:00 AM-11 °C-15 °C73 %1017.9 hPa24.1 kmWest (260°)18.5 km/hPartly Cloudy
9:00 AM-10 °C-15 °C67 %1018.6 hPa48.3 kmWSW (250°)13 km/hPartly Cloudy
10:00 AM-10 °C-16 °C62 %1018.3 hPa48.3 kmWest (270°)14.8 km/hScattered Clouds
11:00 AM-9 °C-16 °C58 %1018.3 hPa48.3 kmWest (280°)20.4 km/hMostly Cloudy
12:00 PM-8 °C-15 °C58 %1017.9 hPa48.3 kmWSW (250°)13 km/hPartly Cloudy
1:00 PM-6.7 °C-14.4 °C40 %1017.6 hPa45.1 kmWest (260°)18.5 km/hClear
1:00 PM-7 °C-15 °C54 %1017.3 hPa48.3 kmWest (270°)18.5 km/hPartly Cloudy
2:00 PM-7 °C-16 °C49 %1016.9 hPa48.3 kmWest (280°)20.4 km/hMostly Cloudy
3:00 PM-6 °C-15 °C50 %1016.6 hPa48.3 kmSW (230°)13 km/hMostly Cloudy
4:00 PM-6 °C-15 °C50 %1016.6 hPa48.3 kmWest (260°)16.7 km/hPartly Cloudy
5:00 PM-7 °C-15 °C54 %1016.6 hPa48.3 kmWSW (250°)18.5 km/hPartly Cloudy
6:00 PM-8 °C-15 °C58 %1016.9 hPa48.3 kmWSW (250°)16.7 km/hPartly Cloudy
7:00 PM-8.3 °C-15.6 °C43 %1017.3 hPa45.1 kmWest (270°)14.8 km/hClear
7:00 PM-8 °C-15 °C58 %1017.3 hPa48.3 kmWest (270°)14.8 km/hPartly Cloudy
8:00 PM-9 °C-16 °C58 %1017.3 hPa24.1 kmWest (270°)16.7 km/hScattered Clouds
9:00 PM-9 °C-16 °C58 %1016.9 hPa24.1 kmWest (280°)9.3 km/hScattered Clouds
10:00 PM-10 °C-16 °C62 %1016.6 hPa24.1 kmWNW (300°)9.3 km/hScattered Clouds
11:00 PM-10 °C-16 °C62 %1015.9 hPa24.1 kmWNW (300°)11.1 km/hMostly Cloudy
Hourly data recorded from CYUL, located 0 kilometers away from Montreal, Quebec







STORIES FROM OUR PARTNERS